Home   Weather   Cuzco   Past weeks

Flag for Peru Past Weather in Cuzco, Cusco, Peru — Yesterday and Last 2 Weeks

Now
57 °F

Scattered clouds.


Feels Like: 57 °F
Forecast: 45 / 66 °F
Wind: 2 mph from North

Location: Cuzco Airport

Current Time: Jan 23, 2017 at 10:04:19 am

Latest Report: Jan 23, 2017 at 9:00 am


Visibility: N/A

Pressure: 30.48 "Hg (20.39 "Hg at 3379m altitude)

Humidity: 59%

Dew Point: 43 °F

Location of CuzcoLocation

Past Weather in Cuzco — Graph

°F

Cuzco Temperature Yesterday

Maximum temperature yesterday: 63 °F (at 11:30 am)
Minimum temperature yesterday: 48 °F (at 12:00 am)
Average temperature yesterday: 54 °F

High & Low Weather Summary for the Past Weeks

 TemperatureHumidityPressure
High70 °F (Jan 17, 2:30 pm)88% (Jan 8, 5:10 pm)30.54 "Hg (Jan 8, 5:10 pm)
Low45 °F (Jan 20, 4:00 am)30% (Jan 13, 2:30 pm)30.21 "Hg (Jan 14, 3:30 pm)
Average56 °F62%30.41 "Hg
* Reported Jan 8 8:00 am — Jan 23 8:30 am, Cuzco, Weather by CustomWeather, © 2017

Note: Actual official high and low records may vary slightly from our data, if they occured in-between our weather recording intervals... More about our weather records

Advertising

Cuzco Weather History for the Previous 24 Hours

Scroll right to see more
 ConditionsComfort  
Time TempWeatherWind HumidityBarometerVisibility
8:30 am
Mon, Jan 23
55 °FBroken clouds.2 mph67%30.48 "HgN/A
8:00 am52 °FBroken clouds.1 mph72%30.48 "HgN/A
7:30 am52 °FBroken clouds.No wind72%30.48 "HgN/A
7:00 am50 °FBroken clouds.1 mph76%30.48 "HgN/A
6:30 am48 °FScattered clouds.No wind82%30.48 "HgN/A
6:00 am45 °FBroken clouds.3 mph87%30.45 "HgN/A
5:30 am46 °FPartly cloudy.3 mph87%30.45 "HgN/A
5:00 am46 °FPartly cloudy.No wind87%30.45 "HgN/A
4:20 am46 °FPartly cloudy.No wind87%30.42 "HgN/A
4:00 am46 °FPartly cloudy.No wind87%30.42 "HgN/A
3:00 am50 °FPartly cloudy.No wind82%30.42 "HgN/A
2:00 am50 °FPartly cloudy.3 mph82%30.42 "HgN/A
1:00 am50 °FPartly cloudy.No wind82%30.45 "HgN/A
12:00 am50 °FPartly cloudy.No wind82%30.45 "HgN/A
11:00 pm
Sun, Jan 22
50 °FPartly cloudy.No wind82%30.48 "HgN/A
10:00 pm52 °FPartly cloudy.5 mph77%30.48 "HgN/A
9:00 pm52 °FLight rain. Partly cloudy.2 mph77%30.45 "HgN/A
8:00 pm52 °FPartly cloudy.3 mph77%30.45 "HgN/A
7:00 pm54 °FPartly cloudy.3 mph72%30.42 "HgN/A
6:00 pm55 °FBroken clouds.5 mph63%30.39 "HgN/A
5:30 pm57 °FBroken clouds.5 mph63%30.39 "HgN/A
5:00 pm57 °FScattered clouds.9 mph59%30.39 "HgN/A
4:30 pm59 °FScattered clouds.7 mph55%30.36 "HgN/A
4:00 pm57 °FScattered showers. Broken clouds.6 mph63%30.39 "HgN/A
3:30 pm55 °FDrizzle. Broken clouds.2 mph67%30.39 "Hg6 mi
3:00 pm54 °FLight rain. Broken clouds.9 mph72%30.42 "Hg5 mi
2:30 pm54 °FLight rain. Broken clouds.12 mph72%30.42 "Hg5 mi
2:00 pm55 °FLight rain. Broken clouds.6 mph67%30.45 "Hg5 mi
1:30 pm55 °FDrizzle. Broken clouds.6 mph63%30.45 "Hg6 mi
1:00 pm55 °FLight rain. Broken clouds.2 mph63%30.45 "Hg6 mi
12:30 pm55 °FLight rain. Broken clouds.10 mph63%30.45 "Hg5 mi
12:00 pm61 °FBroken clouds.9 mph52%30.45 "HgN/A
11:30 am63 °FBroken clouds.3 mph49%30.45 "HgN/A
11:00 am61 °FRefreshingly cool.N/A52%30.48 "HgN/A
10:30 am57 °FBroken clouds.No wind55%30.51 "HgN/A
10:00 am59 °FBroken clouds.6 mph59%30.51 "HgN/A
Weather by CustomWeather, © 2017

See weather overviewHow to use our weather pages